Tracking 19720 objects as of 26-Jun-2019
HD Live streaming from Space Station
objects crossing your sky now

ARIANE 2 DEB

Track ARIANE 2 DEB now!


NORAD ID: 27593
Int'l Code: 1988-040C
Perigee: 530.0 km
Apogee: 35,361.3 km
Inclination: 7.4 °
Period: 628.9 minutes
Semi major axis: 24316 km
RCS: 13.4964 m2 (large)
Launch date: May 17, 1988
Source: France (FR)
Launch site: FRENCH GUIANA (FRGUI)

Note: This is SATELLITE DEBRIS
aabbcc
Your satellite tracking list
Your tracking list is empty




NASA's NSSDC Master Catalog

Two Line Element Set (TLE):
1 27593U 88040C   19176.25877243 -.00000060 +00000-0 -22970-3 0  9999
2 27593 007.4287 275.5166 7162021 281.6423 012.3617 02.28953626141305
Source of the keplerian elements: AFSPC